Reflectivity
-20 -20 -20 -20 -20 -20 -20 -20 -20 -20 -20 -20 -20 -20 -20 -20 -20 -20 -20 -20 -20 -20
-20 -20 -20 -20 -20 -20 -20 -20 -20 -20 -20 -20 -20 -20 -20 -20 -20 -20 -20 -20 -20 -20
-20 -20 -20 -20 -20 -20 -20 -20 -20 -20 -20 -20 -20 -20 -20 -20 -20 -20 -20 -20 -20 -20
-20 -20 -20 -20 -20 -20 -20 -20 -20 -20 -20 -20 -20 -20 -20 -20 -20 -20 -20 -20 -20 -20
-20 -20 -20 -20 -20 -20 -20 -20 -20 -20 -20 -20 -20 -20 -20 -20 -20 -20 -20 -20 -20 -20
-20 -20 -20 -20 -20 -20 -20 -20 -20 -20 -20 -20 -20 -20 -20 -20 -20 -20 -20 -20 -20 -20
-20 -20 -20 -20 -20 -20 -20 -17 -20 -20 -20 -20 -20 -20 -20 -20 -20 -20 -20 -20 -20 -20
-20 -20 -20 -20 -20 -20 -20 -19 -20 -20 -20 -20 -20 -20 -20 -20 -20 -20 -20 -20 -20 -20
-20 -20 -20 -20 -20 -20 -20 -20 -20 -20 -20 -20 -20 -20 -20 -20 -20 -20 -20 -20 -20 -20
-20 -20 -20 -20 -20 -20 -20 -20 -20 -20 -20 -20 -20 -20 -20 -12 -2 -7 -20 -20 -19 -20
-20 -20 -20 -20 -20 -20 -20 -20 -20 -20 -20 -20 -20 -20 -20 -20 -20 -20 -17 -20 -20 -20
-20 -20 -20 -20 -20 -20 -20 -20 -20 -20 -20 -20 -20 -20 -20 -2 -20 -20 -20 -20 -20 -20
-20 -20 -20 -20 -20 -20 -20 -20 -20 -20 -20 -20 -20 -20 -20 -1 -18 -20 -20 -20 -20 -20
-20 -20 -20 -20 -20 -20 -20 -20 -20 -20 -20 -20 -20 -20 1 5 -14 -20 -20 -20 -20 -17
Wind_Speed
1 1 1 2 3 2 3 3 3 3 4 5 4 4 4 3 2 3 3 3 3 2
3 1 1 2 1 0 1 1 3 5 5 5 5 5 5 3 4 1 2 4 4 2
4 3 2 3 2 2 1 1 1 2 3 5 6 6 6 5 5 5 3 3 4 4
1 3 3 2 3 4 2 1 1 1 3 4 4 5 5 5 6 5 5 5 5 6
1 1 1 2 3 1 3 2 2 2 3 3 4 4 4 5 6 6 6 7 6 8
2 1 2 3 2 2 2 2 2 2 3 3 4 5 5 6 6 6 7 7 7 8
3 3 3 2 1 2 2 3 4 3 4 5 5 7 7 8 7 7 8 9 9 9
6 5 4 4 3 3 3 4 4 4 4 4 5 6 7 9 8 9 10 10 11 11
4 4 4 4 4 4 5 4 4 5 4 5 6 14 17 15 8 10 11 11 10 10
3 4 4 3 3 4 5 4 4 5 5 6 6 17 18 19 10 9 8 10 11 11
3 4 4 4 4 4 4 5 5 5 5 5 7 18 18 18 9 7 8 9 11 12
3 4 4 5 5 5 4 5 4 5 6 6 8 18 19 16 4 6 8 11 11 12
4 4 5 5 5 4 4 7 5 7 6 12 10 17 21 17 7 6 7 10 13 22
4 4 6 6 4 4 5 6 6 8 8 8 10 11 20 20 10 7 9 9 10 9
Wind_Direction
84 104 58 37 21 5 11 13 28 357 346 347 349 342 336 311 347 18 337 306 311 313
166 15 100 99 40 222 75 346 14 339 330 332 338 339 329 315 315 349 321 307 321 316
182 181 200 159 225 258 325 144 340 318 334 333 329 327 331 326 333 341 311 308 309 301
215 176 183 216 228 194 198 237 249 297 314 301 303 313 323 317 306 312 322 313 302 295
180 171 208 246 253 272 201 224 211 248 268 280 295 302 310 311 309 306 303 299 295 291
278 220 262 255 255 313 323 304 272 269 265 284 296 300 293 286 283 282 283 283 282 281
302 270 236 270 318 327 313 302 299 288 286 283 282 282 282 283 279 272 277 279 278 276
359 11 11 341 305 290 280 283 294 287 278 278 278 274 259 256 260 270 277 275 276 275
354 356 337 339 337 320 302 285 267 260 259 271 274 279 283 287 279 279 281 282 284 290
353 340 329 317 316 303 293 288 283 277 265 267 264 284 287 286 284 288 290 288 290 294
338 312 312 313 300 294 285 278 277 274 265 262 272 288 293 293 294 290 288 288 285 282
302 298 293 290 287 281 282 280 271 273 274 267 273 290 293 292 273 274 276 279 279 275
284 276 281 275 278 275 265 277 277 279 271 275 288 291 294 293 271 258 261 262 259 271
291 280 269 267 259 267 275 277 273 274 272 265 266 270 288 289 278 258 258 256 261 261